{"data":{"norad_id":65777,"intl_designator":"2025-217R","name":"KUIPER-00163","alt_names":[],"object_type":"PAYLOAD","status":"ACTIVE","operator":null,"country":"US","launch_date":"2025-09-25","launch_site_code":"AFETR","launch_vehicle":null,"mission":null,"orbit_class":"UNKNOWN","rcs_meters":null,"size_class":null,"mass_kg":null,"dimensions":null,"purposes":[],"wikipedia_slug":null,"has_3d_model":false,"image_url":null,"decayed_at":null,"tle_current":{"epoch":"2026-07-26T18:08:57.172992Z","epoch_age_seconds":4963302,"freshness":"OLD","line1":"1 65777U 25217R   26207.75621728  .05224431  12272-4  65873-3 0  9995","line2":"2 65777  51.8570  55.1298 0009117 275.3767  84.6221 16.35051133 46747","mean_motion":16.35051133,"eccentricity":0.0009117,"inclination_deg":51.857,"raan_deg":55.1298,"arg_perigee_deg":275.3767,"mean_anomaly_deg":84.6221,"bstar":0.00065873,"rev_number":4674,"period_min":88.070640173673,"perigee_km":173.02222712392,"apogee_km":184.97851140304,"semimajor_km":6557.1373692635,"source":"CELESTRAK","updated_at":"2026-07-27T09:00:31.248660Z"}}}